EST,Max TemperatureF,Mean TemperatureF,Min TemperatureF,Max Dew PointF,MeanDew PointF,Min DewpointF,Max Humidity, Mean Humidity, Min Humidity, Max Sea Level PressureIn, Mean Sea Level PressureIn, Min Sea Level PressureIn, Max VisibilityMiles, Mean VisibilityMiles, Min VisibilityMiles, Max Wind SpeedMPH, Mean Wind SpeedMPH, Max Gust SpeedMPH,PrecipitationIn, CloudCover, Events, WindDirDegrees
2011-11-1,57,46,35,35,33,30,89,68,43,30.37,30.34,30.30,10,10,10,8,5,,0.00,4,,117
2011-11-2,62,46,30,40,34,29,96,71,38,30.39,30.29,30.17,10,9,6,9,3,16,0.00,0,,124
2011-11-3,88,50,39,42,39,35,86,70,51,30.16,30.04,29.93,10,10,9,13,7,20,0.00,2,,55
2011-11-4,48,39,28,38,27,21,86,63,40,30.39,30.20,30.04,10,10,10,15,6,23,0.00,2,,341
2011-11-5,48,34,21,25,22,19,92,68,34,30.53,30.47,30.39,10,10,10,6,2,,0.00,0,,63
2011-11-6,57,41,25,28,24,20,81,55,26,30.48,30.40,30.31,10,10,10,10,6,,0.00,0,,130
2011-11-7,57,44,30,45,36,28,92,75,53,30.32,30.28,30.23,10,10,10,7,4,,0.00,5,,116
2011-11-8,63,56,46,50,46,43,93,77,62,30.28,30.24,30.18,10,10,8,9,2,,0.00,6,,113
2011-11-9,70,54,37,46,39,32,100,62,27,30.17,30.03,29.88,10,8,4,15,6,20,0.00,0,,122
2011-11-10,57,48,39,50,44,38,100,88,59,29.93,29.87,29.75,10,8,2,14,6,18,0.12,6,Rain,298
2011-11-11,39,36,32,37,34,32,100,92,83,29.93,29.75,29.68,10,7,0,18,7,36,0.14,8,Fog-Rain-Snow,276
2011-11-12,53,43,33,34,31,29,93,73,43,30.02,29.97,29.92,10,10,10,13,4,,0.00,3,,173
2011-11-13,62,48,33,35,32,30,89,50,31,30.03,29.91,29.79,10,10,10,14,8,23,0.00,3,,128
2011-11-14,60,56,53,54,45,36,100,71,51,29.80,29.72,29.59,10,10,10,15,7,,0.77,5,Rain,133
2011-11-15,57,48,39,54,46,38,97,87,75,29.94,29.82,29.63,10,10,10,14,4,20,0.04,3,Rain,275
2011-11-16,53,44,36,52,44,34,100,93,79,29.94,29.84,29.76,10,10,10,9,3,,0.12,5,Rain,141
2011-11-17,39,34,30,34,30,25,100,89,70,30.02,29.96,29.89,10,4,0,20,8,28,0.07,7,Fog-Rain-Snow,285
2011-11-18,37,32,26,31,28,20,100,89,48,30.34,30.20,30.02,10,2,0,17,10,24,0.29,7,Fog-Snow,277
2011-11-19,55,44,34,31,22,20,65,45,27,30.27,30.20,30.10,10,10,9,12,8,,0.00,4,Rain,131
2011-11-20,62,52,39,48,38,29,81,64,56,30.22,30.06,29.97,10,9,4,17,10,28,0.01,7,Rain,269
2011-11-21,39,32,24,29,24,21,91,71,53,30.42,30.36,30.24,10,10,8,12,6,,0.00,3,,339
2011-11-22,39,30,21,37,28,18,100,84,60,30.45,30.23,29.98,10,6,1,15,5,18,0.52,4,Rain,110
2011-11-23,41,37,33,37,35,29,100,89,81,30.12,29.84,29.68,10,6,0,18,10,23,0.49,8,Fog-Rain,39
2011-11-24,45,38,30,38,33,28,100,91,76,30.18,30.15,30.11,10,4,0,8,1,,0.00,7,Fog,127
2011-11-25,57,44,30,40,34,28,100,85,49,30.15,30.10,30.02,9,5,0,6,2,,0.00,1,Fog,117
2011-11-26,59,47,35,41,36,33,93,76,42,30.18,30.14,30.11,10,9,7,9,1,,0.00,0,,350
2011-11-27,60,48,37,48,40,33,86,65,46,30.13,30.02,29.94,10,10,7,10,5,,0.02,4,Rain,122
2011-11-28,59,52,46,52,47,45,100,90,67,30.14,30.07,29.94,10,6,2,12,6,,0.10,7,Rain,234
2011-11-29,62,56,50,57,54,48,100,89,75,30.01,29.75,29.49,10,6,1,14,8,23,0.62,8,Rain,122
2011-11-30,55,44,30,52,35,25,93,81,60,30.06,29.72,29.47,10,8,2,21,10,33,0.01,7,Rain-Snow,252